This is the latest recevied weather packets stored in our database for station/object DL1NUX-15. If no packets are shown the sender has not sent any weather packets the latest 1 day(s).
| Time | Temp. | Humidity | Pressure | Rain* | Wind** | Luminosity | Snow |
|---|---|---|---|---|---|---|---|
| 1778080521 | 18.33° C | 61% | 1006.3 hPa | 0 mm | - | 145 W/m² | - |
| 1778079322 | 18.89° C | 61% | 1006.3 hPa | 0 mm | - | 169 W/m² | - |
| 1778077523 | 19.44° C | 58% | 1006.5 hPa | 0 mm | - | 352 W/m² | - |
| 1778076324 | 18.89° C | 60% | 1006.6 hPa | 0 mm | - | 339 W/m² | - |
| 1778072755 | 18.33° C | 61% | 1006.8 hPa | 0 mm | - | 336 W/m² | - |
| 1778064332 | 18.33° C | 68% | 1007.5 hPa | 0 mm | - | 604 W/m² | - |
| 1778061934 | 17.22° C | 72% | 1007.5 hPa | 0 mm | - | 321 W/m² | - |
| 1778061334 | 17.22° C | 70% | 1007.5 hPa | 0 mm | - | 503 W/m² | - |
| 1778060735 | 17.78° C | 70% | 1007.4 hPa | 0 mm | - | 456 W/m² | - |
| 1778058336 | 16.67° C | 79% | 1007.5 hPa | 0 mm | - | 584 W/m² | - |
| 1778055322 | 15° C | 86% | 1007.1 hPa | 0 mm | - | 498 W/m² | - |
| 1778051725 | 13.89° C | 94% | 1007 hPa | 0 mm | - | 283 W/m² | - |
| 1778048743 | 12.22° C | 99% | 1007.2 hPa | 0 mm | - | 54 W/m² | - |
| 1778045745 | 12.78° C | 99% | 1007.3 hPa | 0 mm | - | 147 W/m² | - |
| 1778044546 | 11.67° C | 99% | 1007.5 hPa | 0 mm | - | 52 W/m² | - |
| 1778040916 | 11.67° C | 99% | 1007.1 hPa | 0 mm | - | 11 W/m² | - |
| 1778039717 | 11.67° C | 99% | 1007.1 hPa | 0 mm | - | 0 W/m² | - |
| 1778035520 | 11.67° C | 99% | 1007.1 hPa | 0 mm | - | 0 W/m² | - |
| 1778033722 | 11.67° C | 99% | 1007.1 hPa | 0.25 mm | - | 0 W/m² | - |
| 1778033122 | 11.67° C | 99% | 1007.2 hPa | 0.25 mm | - | 0 W/m² | - |
| 1778030725 | 11.67° C | 99% | 1007.3 hPa | 0 mm | - | 0 W/m² | - |
| 1778029524 | 11.67° C | 99% | 1007.4 hPa | 0 mm | - | 0 W/m² | - |
| 1778027727 | 11.67° C | 99% | 1007.7 hPa | 0 mm | - | 0 W/m² | - |
| 1778025928 | 12.22° C | 99% | 1007.9 hPa | 0 mm | - | 0 W/m² | - |
| 1778025328 | 12.22° C | 99% | 1008 hPa | 0 mm | - | 0 W/m² | - |
* Rain latest hour (hover to see other rain measurements)
** Current wind speed in m/s (hover to see current wind gust speed)